Flag for Colombia Weather past 2 weeks in Manizales, Colombia

Now
70 °F

Passing clouds.


Feels Like: 70 °F
Forecast: 53 / 73 °F
Wind: N/A

Location: Pereira / Matecana

Current Time: Jan 30, 2015 at 12:03:17 AM

Latest Report: Jan 29, 2015 at 11:00 PM


Visibility: N/A

Pressure: 30.01 "Hg

Humidity: 78%

Dew point: 63 °F

Location of ManizalesLocation

Historic Weather in Manizales — Graph

°F

Manizales temperature yesterday

Maximum temperature yesterday: 84 °F (at 1:00 PM)
Minimum temperature yesterday: 37 °F (at 9:00 AM)
Average temperature yesterday: 73 °F

Past Weeks' High & Low Weather Summary

 TemperatureHumidityPressure
High84 °F (Jan 16, 2:00 PM)100% (Jan 19, 5:00 AM)30.17 "Hg (Jan 19, 5:00 AM)
Low37 °F (Jan 29, 9:00 AM)43% (Jan 29, 4:00 PM)29.85 "Hg (Jan 29, 4:00 PM)
Average71 °F78%30.04 "Hg
* Reported Jan 14 10:00 PM — Jan 29 10:00 PM, Manizales, Weather by CustomWeather, © 2014

Note: Actual official high and low records may vary slightly from our data, if they occured in-between our weather recording intervals... More about our weather records

Advertising

Manizales weather history for previous 24 hours

 ConditionsComfort  
Time TempWeatherWind HumidityBarometerVisibility
10:00 PM
Jan 29
70 °FPassing clouds.7 mph83%30.00 "HgN/A
9:00 PM72 °FPassing clouds.5 mph78%29.98 "HgN/A
8:00 PM77 °FPassing clouds.6 mph69%29.92 "HgN/A
7:00 PM77 °FPassing clouds.6 mph69%29.92 "HgN/A
6:00 PM81 °FScattered clouds.12 mph58%29.88 "HgN/A
5:00 PM84 °FPassing clouds.2 mph43%29.86 "HgN/A
4:00 PM84 °FPassing clouds.6 mph43%29.85 "HgN/A
3:00 PM84 °FPassing clouds.2 mph45%29.87 "HgN/A
2:00 PM84 °FPassing clouds.3 mph48%29.89 "HgN/A
1:00 PM84 °FScattered clouds.6 mph51%29.94 "HgN/A
12:00 PM81 °FScattered clouds.8 mph58%29.97 "HgN/A
11:00 AM77 °FPassing clouds.6 mph61%30.00 "HgN/A
10:00 AM75 °FPassing clouds.5 mph65%30.03 "HgN/A
9:00 AM37 °FPassing clouds.2 mph100%30.02 "HgN/A
8:00 AM68 °FPassing clouds.7 mph78%30.01 "HgN/A
7:00 AM64 °FPassing clouds.6 mph88%30.00 "HgN/A
6:00 AM64 °FPassing clouds.7 mph88%29.97 "HgN/A
5:00 AM64 °FPassing clouds.3 mph83%30.00 "HgN/A
12:00 AM68 °FPassing clouds.6 mph83%29.97 "HgN/A
Weather by CustomWeather, © 2014

See weather overviewHow to use our weather pages